User: anonymous   Login
Location: Unspecified
(0.0000°N, 0.0000°E)
Time: 19:14:36
(UTC+01:00)
Language:

Cosmos 1437 - Orbit

View from above orbital plane
View from above orbital plane
View from above satellite
View from above satellite

Ground track
Ground track

The orbit data is extracted from the following two-line orbital elements,

1 13770U 83003A   17021.50350127  .00006209  00000-0  11128-3 0  9999
2 13770  81.1596 328.3916 0008546  62.0133 298.1978 15.49694339863790
Epoch (UTC): 21 January 2017 12:05:02
Eccentricity: 0.0008546
inclination: 81.1596°
perigee height: 412 km
apogee height: 423 km
right ascension of ascending node: 328.3916°
argument of perigee: 62.0133°
revolutions per day: 15.49694339
mean anomaly at epoch: 298.1978°
orbit number at epoch: 86379

The dashed part of the orbit path shows where the satellite is in the earth's shadow,  

DLR